[[{"header":{"parameterUnit":"m.s-1","parameterCategory":2,"la1":30.2991,"la2":30.254,"lo1":-89.0895,"lo2":-89.0444,"dy":0.0017,"dx":0.0017,"nx":28,"ny":28,"refTime":"2025-07-04T03:00:00:Z","depth":"0","parameterNumber":2,"parameterNumberName":"U-component_of_CURRENTS"},"data":[0,0,0,0,0,0,0,0,0,0,0,0,0,0,0,0,0,0,0,0,0,0,0,0,0,0,0,0,0,0,0,0,0,0,0,0,0,0,0,0,0,0,0,0,0,0,0,0,0,0,0,0,0,0,0,0,0,0,0.1848,0.1848,0,0.1919,0.1919,0.192,0.1919,0.1918,0.1917,0.1916,0.1972,0.1974,0.1976,0,0,0,0,0,0,0,0,0,0,0,0,0,0.1733,0.1735,0.1848,0.1848,0.1849,0.1918,0.1919,0.192,0.1919,0.1918,0.1916,0.1915,0.1971,0.1974,0.1977,0,0,0,0,0,0,0,0,0,0,0,0,0,0.1791,0.1736,0.1847,0.1857,0.1858,0.1918,0.192,0.1921,0.1919,0.1917,0.1916,0.1915,0.197,0.1973,0.1977,0.2028,0,0,0.1988,0.199,0,0,0,0,0,0,0,0,0.1788,0.1796,0.1855,0.1856,0.1858,0.1908,0.19,0.1956,0.1919,0.1896,0.1916,0.1914,0.195,0.1955,0.1972,0.2031,0.2033,0.1988,0.199,0.1992,0.1993,0,0,0,0,0,0,0,0.1784,0.1793,0.1876,0.1856,0.1858,0.1865,0.1872,0.1911,0.193,0.1898,0.1898,0.1906,0.1951,0.1969,0.1973,0.2034,0.1988,0.1991,0.1994,0.1995,0.2214,0.2217,0,0,0,0,0,0,0.1776,0.1789,0.1874,0.1878,0.1819,0.1868,0.1876,0.1894,0.193,0.1934,0.1907,0.1906,0.1963,0.1969,0.1975,0.2078,0.1992,0.1995,0.1997,0.221,0.2215,0.2219,0,0,0,0,0,0,0.1773,0.1783,0.1871,0.1834,0.1846,0.1872,0.1892,0.1896,0.1916,0.1937,0.1941,0.1924,0.1962,0.197,0.204,0.2078,0.1997,0.2,0.2206,0.2212,0.2217,0.2258,0,0,0,0,0,0,0.177,0.1782,0.1803,0.1834,0.1847,0.1931,0.1894,0.1898,0.1924,0.1922,0.1953,0.1957,0.1962,0.2034,0.2043,0.2082,0.2003,0.2201,0.2209,0.2215,0.2252,0.2264,0.2275,0,0,0,0,0,0.1766,0.1822,0.1804,0.1815,0.1872,0.1934,0.1943,0.1955,0.1926,0.1962,0.1982,0.1956,0.2084,0.2041,0.205,0.209,0.2198,0.2207,0.2215,0.2247,0.2262,0.2274,0,0,0,0,0,0,0.1813,0.1828,0.1809,0.1872,0.1901,0.1934,0.1971,0.1963,0.2006,0.1999,0.2001,0.2009,0.2086,0.2096,0.2048,0.2181,0.2138,0.2149,0.216,0.2174,0.2185,0.217,0.2006,0,0,0,0,0,0.1822,0.1847,0.1871,0.1919,0.1934,0.1945,0.197,0.1974,0.2009,0.2024,0.204,0.2075,0.2131,0.2155,0.2204,0.2273,0.2273,0.2311,0.2322,0.2331,0.2331,0.2377,0.239,0.2246,0.2246,0.2246,0,0,0.1856,0.1864,0.1882,0.1927,0.1943,0.1985,0.1958,0.2006,0.2039,0.2026,0.2084,0.2116,0.2162,0.2243,0.2277,0.2251,0.2378,0.2342,0.2348,0.2343,0.2386,0.24,0.2412,0.2251,0.225,0.2249,0,0,0.1926,0.1937,0.1973,0.1996,0.2022,0.2033,0.2045,0.2077,0.2093,0.2158,0.2159,0.2215,0.229,0.2329,0.2358,0.2467,0.2438,0.2487,0.2524,0.2569,0.2579,0.2589,0.2611,0.2622,0.2488,0.2488,0.2488,0,0.1967,0.1997,0.2001,0.2038,0.2055,0.2051,0.2094,0.2128,0.2177,0.2192,0.2188,0.2296,0.2333,0.242,0.2466,0.2488,0.2499,0.2457,0.2578,0.2587,0.2596,0.2617,0.2628,0.2491,0.2491,0.249,0.249,0,0.2047,0.2071,0.2103,0.2124,0.2158,0.2199,0.2224,0.2257,0.226,0.2278,0.2356,0.241,0.2461,0.2501,0.252,0.261,0.2594,0.2583,0.2527,0.2612,0.263,0.2641,0.2495,0.2494,0.2493,0.2493,0,0,0.2137,0.215,0.2158,0.2148,0.2194,0.2219,0.2285,0.2329,0.234,0.2404,0.2432,0.2552,0.2544,0.2581,0.2606,0.266,0.2744,0.2653,0.2654,0.2646,0.283,0.2813,0.2823,0.2748,0.275,0.2752,0.2816,0,0.219,0.2227,0.224,0.228,0.2292,0.2306,0.2354,0.2392,0.2419,0.2451,0.2509,0.2555,0.2585,0.26,0.2665,0.2713,0.2776,0.2726,0.2775,0.2776,0.2726,0.2837,0.2841,0.2899,0.2827,0.2829,0.283,0,0.2253,0.2256,0.2288,0.2288,0.2299,0.2331,0.2355,0.24,0.2456,0.2477,0.253,0.2556,0.2645,0.2652,0.2778,0.274,0.2802,0.2844,0.2846,0.282,0.2781,0.2807,0.2922,0.281,0.2847,0.2845,0.2844,0,0.2247,0.2287,0.2288,0.2296,0.2318,0.2334,0.2353,0.2401,0.242,0.248,0.2491,0.2582,0.2613,0.271,0.2801,0.2792,0.2927,0.2913,0.2961,0.2958,0.2967,0.2962,0.2954,0.3027,0.3027,0.3026,0.3026,0,0.227,0.2275,0.2273,0.227,0.2272,0.2304,0.2317,0.235,0.2392,0.241,0.2485,0.2516,0.2633,0.2714,0.2805,0.2912,0.2929,0.299,0.2989,0.2984,0.298,0.2884,0.2776,0.3029,0.3028,0.3028,0.3027,0,0.2252,0.2257,0.2249,0.2256,0.2259,0.2254,0.2276,0.2284,0.2333,0.2358,0.2375,0.2472,0.2581,0.2696,0.2844,0.2902,0.2945,0.3051,0.3025,0.3021,0.2943,0.2837,0.2773,0.2738,0.3107,0.3107,0.3108,0,0.2235,0.2227,0.2216,0.22,0.22,0.2199,0.2201,0.2247,0.2258,0.233,0.2339,0.2448,0.2529,0.2726,0.2877,0.3031,0.2948,0.3097,0.3095,0.2958,0.284,0.2734,0.2702,0.3126,0.3127,0.3127,0.3127,0,0.2193,0.2187,0.2172,0.2145,0.2133,0.2126,0.2134,0.2135,0.2192,0.2223,0.2281,0.2352,0.256,0.2712,0.2909,0.3025,0.2954,0.3104,0.2988,0.288,0.2741,0.27,0.3034,0.3129,0.3129,0.3129,0.3129,0.3129,0.2149,0.2127,0.2102,0.2081,0.2067,0.2055,0.2037,0.206,0.2078,0.2114,0.2207,0.2295,0.2535,0.2825,0.2928,0.3047,0.2964,0.3016,0.2909,0.2823,0.2757,0.308,0.315,0.315,0.315,0.315,0.315,0,0.2085,0.2068,0.204,0.2008,0.1981,0.1996,0.199,0.1968,0.1974,0.2041,0.2096,0.2293,0.2495,0.271,0.2905,0.2847,0.2853,0.2768,0.2628,0.2618,0.2953,0.2922,0.2915,0.2915,0.2915,0.2915,0.2915,0.2916,0.2041,0.2,0.1994,0.1933,0.1914,0.1864,0.1852,0.1833,0.1861,0.1896,0.1969,0.2067,0.2281,0.2463,0.2548,0.2577,0.241,0.2347,0.2271,0.2488,0.2503,0.2517,0.2468,0.2365,0.2364,0.1993,0.1989,0.1986]},{"header":{"parameterUnit":"m.s-1","parameterCategory":2,"la1":30.2991,"la2":30.254,"lo1":-89.0895,"lo2":-89.0444,"dy":0.0017,"dx":0.0017,"nx":28,"ny":28,"refTime":"2025-07-04T03:00:00:Z","depth":"0","parameterNumber":3,"parameterNumberName":"V-component_of_CURRENTS"},"data":[0,0,0,0,0,0,0,0,0,0,0,0,0,0,0,0,0,0,0,0,0,0,0,0,0,0,0,0,0,0,0,0,0,0,0,0,0,0,0,0,0,0,0,0,0,0,0,0,0,0,0,0,0,0,0,0,0,0,-0.002,-0.002,0,-0.0041,-0.0042,-0.0042,-0.0089,-0.009,-0.0091,-0.0092,-0.0167,-0.0169,-0.017,0,0,0,0,0,0,0,0,0,0,0,0,0,-0.0044,-0.0043,-0.002,-0.002,-0.002,-0.0041,-0.0042,-0.0042,-0.0089,-0.009,-0.0091,-0.0092,-0.0167,-0.0169,-0.017,0,0,0,0,0,0,0,0,0,0,0,0,0,-0.0048,-0.0043,-0.002,-0.0045,-0.0048,-0.0041,-0.0042,-0.0042,-0.0089,-0.009,-0.0092,-0.0093,-0.0167,-0.0168,-0.017,-0.0156,0,0,-0.0176,-0.0177,0,0,0,0,0,0,0,0,-0.0047,-0.0047,-0.0042,-0.0044,-0.0046,-0.0063,-0.0078,-0.0083,-0.0089,-0.0075,-0.0092,-0.0093,-0.0136,-0.014,-0.0142,-0.016,-0.0163,-0.0176,-0.0177,-0.0178,-0.0178,0,0,0,0,0,0,0,-0.0047,-0.0046,-0.003,-0.0042,-0.0044,-0.0064,-0.0066,-0.0079,-0.01,-0.0076,-0.0079,-0.0079,-0.0138,-0.014,-0.0145,-0.0164,-0.0176,-0.0178,-0.0179,-0.0179,-0.0185,-0.0184,0,0,0,0,0,0,-0.0039,-0.0046,-0.0029,-0.003,-0.0048,-0.0062,-0.0064,-0.0057,-0.0099,-0.0105,-0.0078,-0.0081,-0.0137,-0.0143,-0.0148,-0.0138,-0.0178,-0.018,-0.0181,-0.0186,-0.0184,-0.0183,0,0,0,0,0,0,-0.0039,-0.0037,-0.0028,-0.0038,-0.0038,-0.006,-0.0052,-0.0057,-0.0065,-0.0099,-0.0108,-0.0081,-0.0138,-0.0145,-0.0153,-0.0141,-0.018,-0.0182,-0.0187,-0.0185,-0.0184,-0.0116,0,0,0,0,0,0,-0.0039,-0.0036,-0.0031,-0.0037,-0.0037,-0.0021,-0.0051,-0.0057,-0.0062,-0.0066,-0.0104,-0.0113,-0.014,-0.015,-0.0155,-0.0145,-0.0183,-0.0188,-0.0186,-0.0184,-0.012,-0.0113,-0.0107,0,0,0,0,0,-0.004,-0.0026,-0.0031,-0.0029,-0.0028,-0.002,-0.0022,-0.0044,-0.0061,-0.0057,-0.008,-0.0112,-0.0143,-0.0151,-0.0157,-0.0147,-0.0189,-0.0187,-0.0184,-0.0123,-0.0114,-0.0107,0,0,0,0,0,0,-0.004,-0.0029,-0.0035,-0.002,-0.0019,-0.0028,-0.0027,-0.0038,-0.0052,-0.0061,-0.0097,-0.0105,-0.0107,-0.0132,-0.014,-0.0142,-0.0172,-0.0171,-0.0123,-0.0115,-0.0109,-0.0111,-0.0185,0,0,0,0,0,-0.0034,-0.0017,-0.0015,-0.0004,-0.0002,-0.0013,-0.0014,-0.0024,-0.0035,-0.0044,-0.0066,-0.009,-0.01,-0.0113,-0.0127,-0.0127,-0.0151,-0.0125,-0.0118,-0.0112,-0.0117,-0.0131,-0.0127,-0.0176,-0.0176,-0.0176,0,0,-0.0032,-0.0023,-0.0015,-0.0002,-0.0005,0.0003,-0.0017,-0.0013,-0.0009,-0.0049,-0.0052,-0.0066,-0.0093,-0.0092,-0.0096,-0.0114,-0.0109,-0.011,-0.0105,-0.0113,-0.0129,-0.0124,-0.012,-0.0175,-0.0175,-0.0175,0,0,-0.0018,-0.001,0.0005,0.0012,0.0018,0.0016,0.002,0.0016,0.001,0.0014,-0.0012,-0.0015,-0.0037,-0.0049,-0.006,-0.0025,-0.007,-0.0032,-0.0007,-0.002,-0.0016,-0.0013,-0.0029,-0.0028,-0.0034,-0.0034,-0.0034,0,-0.0022,0.0001,0.001,0.0024,0.0029,0.0024,0.0035,0.0036,0.003,0.003,0.0018,0.0003,-0.0016,-0.0015,-0.0002,-0.0011,-0.003,-0.0033,-0.0012,-0.0009,-0.0008,-0.0024,-0.0024,-0.003,-0.0031,-0.0031,-0.0031,0,0.0002,0.0017,0.0027,0.0046,0.0055,0.0066,0.0071,0.0078,0.0073,0.0071,0.0076,0.006,0.0045,0.0048,0.0032,0.0039,0.0019,0.0003,-0.0032,0.0002,-0.0018,-0.0019,-0.0025,-0.0026,-0.0027,-0.0028,0,0,-0.0005,0.0035,0.0036,0.0048,0.0067,0.0076,0.0093,0.0106,0.0112,0.0113,0.012,0.0118,0.0107,0.0095,0.0079,0.0072,0.0079,0.0044,0.0042,0.0029,0.0046,0.0032,0.0029,0.0065,0.0065,0.0065,0.0031,0,0.0004,0.0036,0.0055,0.0079,0.0093,0.0103,0.0119,0.0131,0.0137,0.0145,0.0139,0.0139,0.0125,0.012,0.0115,0.0088,0.0078,0.009,0.0016,0.0013,-0.0004,0.0028,0.0076,0.0049,0.003,0.0029,0.0029,0,0.0014,0.0036,0.0063,0.0096,0.0102,0.0117,0.0139,0.0155,0.017,0.0174,0.0176,0.0167,0.0165,0.0146,0.0115,0.0121,0.0087,0.0066,0.0063,0.0022,-0.0003,0.0011,0.0047,0.0025,0.0027,0.0027,0.0027,0,0.0001,0.0039,0.0061,0.0072,0.0109,0.0121,0.0138,0.0159,0.0175,0.0188,0.0198,0.019,0.0185,0.0151,0.0115,0.011,0.0076,0.0059,0.0013,0.0011,0.0022,0.0021,0.0027,0.0029,0.0029,0.0029,0.0029,0,0.0002,0.0017,0.0056,0.0067,0.0093,0.0117,0.0142,0.016,0.0185,0.0208,0.0208,0.0223,0.0186,0.0166,0.0123,0.0071,0.0079,0.002,0.0003,0.0048,0.005,0.0005,-0.005,0.0027,0.0028,0.0028,0.0028,0,-0.0018,0.0008,0.0035,0.0075,0.0088,0.0104,0.0148,0.0169,0.0192,0.0222,0.0227,0.0243,0.0225,0.0184,0.013,0.0081,-0.0016,0.0005,0.0061,0.0051,-0.002,-0.0074,-0.023,-0.0286,-0.0054,-0.0055,-0.0055,0,-0.0023,-0.001,0.0034,0.0054,0.0073,0.0103,0.0129,0.0164,0.019,0.0239,0.0254,0.0255,0.0276,0.0201,0.0123,0.0046,-0.0036,0.0011,0.0007,-0.0014,-0.0087,-0.0196,-0.0239,0.0054,0.0054,0.0054,0.0055,0,-0.0032,-0.0017,0.0008,0.0047,0.0077,0.0113,0.0152,0.0176,0.0223,0.0263,0.0315,0.0341,0.029,0.0269,0.016,0.0091,-0.0049,0.0014,-0.0014,-0.001,-0.0124,-0.0187,0.006,0.0058,0.0058,0.0058,0.0057,0.0057,-0.0039,-0.0024,0.0012,0.0046,0.0082,0.0126,0.0162,0.0217,0.0275,0.037,0.038,0.048,0.0436,0.0315,0.0186,0.0035,-0.006,0.001,-0.0056,-0.0166,-0.0217,0.003,0.001,0.0009,0.0009,0.0008,0.0008,0,-0.0042,-0.002,0.0013,0.006,0.0097,0.0118,0.0183,0.024,0.0326,0.0449,0.0529,0.0645,0.0556,0.0422,0.021,0.0042,-0.0093,-0.005,-0.0153,-0.0196,0.0053,0.0069,0.0069,0.007,0.007,0.007,0.007,0.007,-0.0039,-0.0013,0.0004,0.0061,0.0097,0.0158,0.02,0.0303,0.0414,0.0611,0.0758,0.0865,0.0871,0.0418,0.0118,0.0007,-0.0184,-0.0251,-0.0363,-0.011,-0.0108,-0.0106,-0.0099,-0.0133,-0.0134,-0.0576,-0.058,-0.0582]}],[{"header":{"parameterUnit":"m.s-1","parameterCategory":2,"la1":30.2991,"la2":30.254,"lo1":-89.0895,"lo2":-89.0444,"dy":0.0017,"dx":0.0017,"nx":28,"ny":28,"refTime":"2025-07-04T03:00:00:Z","depth":"2","parameterNumber":2,"parameterNumberName":"U-component_of_CURRENTS"},"data":[0,0,0,0,0,0,0,0,0,0,0,0,0,0,0,0,0,0,0,0,0,0,0,0,0,0,0,0,0,0,0,0,0,0,0,0,0,0,0,0,0,0,0,0,0,0,0,0,0,0,0,0,0,0,0,0,0,0,0.0775,0.0775,0,0.0787,0.0787,0.0788,0.0813,0.0813,0.0814,0.0814,0.085,0.085,0.085,0,0,0,0,0,0,0,0,0,0,0,0,0,0.0775,0.0775,0.0775,0.0775,0.0775,0.0787,0.0787,0.0788,0.0812,0.0813,0.0814,0.0815,0.0849,0.085,0.085,0,0,0,0,0,0,0,0,0,0,0,0,0,0.0779,0.0775,0.0775,0.079,0.0791,0.0787,0.0787,0.0788,0.0812,0.0813,0.0814,0.0815,0.0849,0.085,0.085,0.0837,0,0,0.0852,0.0853,0,0,0,0,0,0,0,0,0.0779,0.0779,0.0787,0.0789,0.079,0.08,0.0801,0.0806,0.0812,0.0803,0.0814,0.0815,0.0835,0.0837,0.0836,0.0839,0.084,0.0852,0.0853,0.0853,0.0853,0,0,0,0,0,0,0,0.0779,0.0779,0.0779,0.0787,0.0789,0.0797,0.0798,0.0802,0.0814,0.0804,0.0806,0.0809,0.0836,0.0835,0.0837,0.0841,0.0852,0.0853,0.0853,0.0854,0.0907,0.0908,0,0,0,0,0,0,0.0778,0.0778,0.0778,0.0779,0.0788,0.0796,0.0798,0.0795,0.0814,0.0817,0.0808,0.081,0.0834,0.0836,0.0838,0.0905,0.0853,0.0854,0.0854,0.0905,0.0907,0.0908,0,0,0,0,0,0,0.0777,0.0777,0.0778,0.078,0.0781,0.0795,0.0792,0.0795,0.0817,0.0816,0.0821,0.0829,0.0834,0.0837,0.0864,0.0903,0.0854,0.0854,0.0904,0.0906,0.0907,0.0986,0,0,0,0,0,0,0.0777,0.0777,0.0784,0.078,0.0781,0.0795,0.0792,0.0795,0.0816,0.0819,0.0835,0.0838,0.0835,0.0863,0.0865,0.0903,0.0855,0.0903,0.0905,0.0907,0.0982,0.099,0.0997,0,0,0,0,0,0.0777,0.0778,0.0784,0.0784,0.0786,0.0796,0.0798,0.081,0.0816,0.0831,0.0843,0.0839,0.0877,0.0865,0.0866,0.0906,0.0902,0.0904,0.0907,0.0979,0.0988,0.0997,0,0,0,0,0,0,0.0788,0.0781,0.0787,0.0788,0.0802,0.0801,0.0815,0.0821,0.0841,0.085,0.0849,0.0853,0.0892,0.0882,0.0868,0.0925,0.089,0.0893,0.0944,0.0953,0.096,0.0962,0.0855,0,0,0,0,0,0.0791,0.0789,0.0792,0.0799,0.0806,0.0815,0.0823,0.0834,0.0845,0.0855,0.0868,0.0881,0.0897,0.0913,0.092,0.0949,0.0952,0.0975,0.0982,0.0989,0.099,0.1026,0.1038,0.0916,0.0916,0.0916,0,0,0.0798,0.0795,0.0796,0.0802,0.0812,0.0828,0.0823,0.0844,0.0866,0.0855,0.0896,0.0907,0.0908,0.0946,0.0962,0.0948,0.1028,0.0992,0.0997,0.0995,0.103,0.1042,0.1053,0.0917,0.0917,0.0917,0,0,0.0807,0.0811,0.0813,0.0826,0.0845,0.0851,0.0863,0.0879,0.0898,0.0929,0.0934,0.0966,0.0986,0.1003,0.101,0.1058,0.1063,0.1069,0.1115,0.1151,0.1162,0.1171,0.1208,0.122,0.1077,0.1078,0.1078,0,0.0822,0.0821,0.082,0.0832,0.0848,0.0865,0.0885,0.0903,0.0931,0.0954,0.0953,0.1008,0.1011,0.1062,0.1083,0.1077,0.11,0.1085,0.1163,0.1172,0.118,0.1215,0.1227,0.1082,0.1081,0.1081,0.108,0,0.0827,0.0841,0.0848,0.0866,0.0885,0.0907,0.093,0.0963,0.0987,0.1009,0.1069,0.108,0.1117,0.1128,0.1121,0.119,0.1189,0.1167,0.1144,0.1197,0.1231,0.1242,0.1087,0.1086,0.1085,0.1084,0,0,0.0828,0.0847,0.0853,0.0871,0.0906,0.0921,0.0967,0.101,0.1054,0.109,0.1148,0.1181,0.1204,0.1213,0.1223,0.1255,0.1336,0.1246,0.1246,0.1288,0.1433,0.1387,0.1395,0.1339,0.1341,0.1343,0.1439,0,0.0841,0.0858,0.087,0.0911,0.0927,0.0964,0.1005,0.1053,0.1099,0.116,0.1194,0.1249,0.1233,0.127,0.1302,0.1328,0.1367,0.1313,0.1368,0.1369,0.1327,0.1406,0.1154,0.1214,0.145,0.1452,0.1453,0,0.0844,0.0856,0.0884,0.0934,0.0947,0.0979,0.1057,0.1099,0.1184,0.1225,0.1292,0.1324,0.1394,0.1362,0.1445,0.1419,0.1434,0.1444,0.1448,0.1382,0.1344,0.1194,0.1225,0.1471,0.147,0.1469,0.1467,0,0.0831,0.0871,0.0892,0.0908,0.0963,0.0997,0.104,0.1122,0.1169,0.1279,0.1328,0.1412,0.146,0.15,0.1531,0.1503,0.1611,0.1569,0.1542,0.1539,0.132,0.1294,0.1622,0.1622,0.1622,0.1621,0.1621,0,0.083,0.0856,0.0889,0.0902,0.0948,0.0996,0.1065,0.1126,0.1218,0.1282,0.1364,0.1429,0.1498,0.1563,0.1576,0.1609,0.1654,0.1569,0.1568,0.1341,0.1318,0.1524,0.1511,0.1625,0.1624,0.1623,0.1623,0,0.0819,0.0837,0.0866,0.092,0.094,0.0977,0.1061,0.1113,0.1209,0.1297,0.1336,0.1462,0.1565,0.1624,0.17,0.1661,0.1696,0.1689,0.1426,0.1392,0.1588,0.1578,0.1674,0.1673,0.1672,0.1672,0.1672,0,0.0815,0.0824,0.0867,0.0883,0.091,0.0966,0.1005,0.1099,0.1152,0.1307,0.1344,0.1486,0.1561,0.1671,0.1627,0.1654,0.1731,0.1448,0.1336,0.1608,0.1597,0.1588,0.1579,0.1082,0.1077,0.1073,0.107,0,0.0815,0.0829,0.0849,0.0869,0.0903,0.0937,0.1,0.1034,0.1149,0.1228,0.1347,0.1424,0.1504,0.1431,0.1465,0.1429,0.1424,0.1364,0.1724,0.1112,0.1059,0.1045,0.1054,0.1032,0.1036,0.1038,0.104,0.1042,0.0824,0.0828,0.0845,0.0864,0.0889,0.0909,0.0929,0.0992,0.1062,0.1159,0.1256,0.1283,0.1203,0.114,0.1155,0.1158,0.1227,0.1121,0.113,0.1144,0.1062,0.1011,0.0961,0.0964,0.0967,0.0969,0.0971,0,0.0833,0.0831,0.084,0.0852,0.085,0.0884,0.0923,0.0926,0.098,0.1039,0.1108,0.0894,0.0819,0.0861,0.077,0.0762,0.0722,0.0769,0.0673,0.0704,0.0734,0.0631,0.0416,0.0417,0.0417,0.0417,0,0,0.0839,0.0833,0.0821,0.0805,0.0817,0.0821,0.0834,0.085,0.0857,0.084,0.08,0.0747,0.0718,0.0522,0.0482,0.0485,0.0617,0.0458,0.0864,0.0774,0.0806,0.0854,0.072,0,0,0,0,0]},{"header":{"parameterUnit":"m.s-1","parameterCategory":2,"la1":30.2991,"la2":30.254,"lo1":-89.0895,"lo2":-89.0444,"dy":0.0017,"dx":0.0017,"nx":28,"ny":28,"refTime":"2025-07-04T03:00:00:Z","depth":"2","parameterNumber":3,"parameterNumberName":"V-component_of_CURRENTS"},"data":[0,0,0,0,0,0,0,0,0,0,0,0,0,0,0,0,0,0,0,0,0,0,0,0,0,0,0,0,0,0,0,0,0,0,0,0,0,0,0,0,0,0,0,0,0,0,0,0,0,0,0,0,0,0,0,0,0,0,0.0024,0.0024,0,-0.0055,-0.0056,-0.0057,-0.0126,-0.0127,-0.0128,-0.0128,-0.0259,-0.0262,-0.0265,0,0,0,0,0,0,0,0,0,0,0,0,0,0.0074,0.0073,0.0024,0.0023,0.0023,-0.0055,-0.0056,-0.0057,-0.0126,-0.0127,-0.0128,-0.0128,-0.0258,-0.0262,-0.0265,0,0,0,0,0,0,0,0,0,0,0,0,0,0.0028,0.0073,0.0025,-0.002,-0.0025,-0.0055,-0.0056,-0.0058,-0.0126,-0.0127,-0.0128,-0.0129,-0.0257,-0.0261,-0.0266,-0.0272,0,0,-0.0279,-0.0281,0,0,0,0,0,0,0,0,0.0031,0.0026,-0.0013,-0.0017,-0.0022,-0.0081,-0.0087,-0.0132,-0.0126,-0.0089,-0.0128,-0.0129,-0.0203,-0.0212,-0.0225,-0.0278,-0.0284,-0.0279,-0.0282,-0.0284,-0.0285,0,0,0,0,0,0,0,0.0034,0.0029,-0.0008,-0.0013,-0.0019,-0.0051,-0.0058,-0.0096,-0.0141,-0.0092,-0.0097,-0.0104,-0.0206,-0.0221,-0.0229,-0.0286,-0.0279,-0.0283,-0.0286,-0.0287,-0.0397,-0.0397,0,0,0,0,0,0,0.005,0.0032,-0.0006,-0.0011,0.0004,-0.0051,-0.0059,-0.0062,-0.014,-0.0152,-0.0103,-0.0106,-0.0213,-0.0224,-0.0234,-0.0256,-0.0284,-0.0288,-0.029,-0.0396,-0.0397,-0.0397,0,0,0,0,0,0,0.0051,0.0047,-0.0003,0.001,0.0001,-0.005,-0.0053,-0.0063,-0.0083,-0.0147,-0.0161,-0.0113,-0.0214,-0.0228,-0.0276,-0.0261,-0.029,-0.0294,-0.0396,-0.0397,-0.0397,-0.0294,0,0,0,0,0,0,0.0053,0.0048,0.005,0.0011,0.0001,-0.0012,-0.0052,-0.0064,-0.0085,-0.0091,-0.016,-0.0173,-0.0216,-0.0269,-0.028,-0.0268,-0.0297,-0.0396,-0.0396,-0.0397,-0.0297,-0.0291,-0.0285,0,0,0,0,0,0.0055,0.007,0.0051,0.0046,0.0006,-0.0011,-0.0019,-0.006,-0.0084,-0.0084,-0.0141,-0.0171,-0.0281,-0.0273,-0.0286,-0.0274,-0.0395,-0.0396,-0.0397,-0.0299,-0.0292,-0.0285,0,0,0,0,0,0,0.0087,0.0063,0.0041,0.0045,0.0021,-0.0022,-0.0025,-0.0055,-0.0099,-0.0109,-0.0174,-0.0191,-0.0228,-0.027,-0.026,-0.0311,-0.0344,-0.0347,-0.0265,-0.0259,-0.0253,-0.0214,-0.03,0,0,0,0,0,0.0097,0.0103,0.0069,0.007,0.0063,0.0018,0.0004,-0.0021,-0.0063,-0.0084,-0.0132,-0.0191,-0.0239,-0.0264,-0.0312,-0.0336,-0.0366,-0.034,-0.0334,-0.0329,-0.0309,-0.0361,-0.0358,-0.04,-0.04,-0.04,0,0,0.0108,0.0097,0.0097,0.0078,0.0054,0.0056,0.0007,-0.0004,-0.0007,-0.0091,-0.0113,-0.0171,-0.0243,-0.0273,-0.0293,-0.0306,-0.0331,-0.033,-0.0324,-0.0307,-0.0362,-0.0357,-0.0353,-0.04,-0.04,-0.04,0,0,0.0142,0.0125,0.0142,0.0132,0.0109,0.0085,0.0085,0.0046,0.0024,-0.0003,-0.0069,-0.0116,-0.0184,-0.023,-0.0264,-0.0257,-0.0301,-0.0278,-0.0213,-0.0264,-0.026,-0.0257,-0.0271,-0.027,-0.0273,-0.0272,-0.0272,0,0.0149,0.017,0.0143,0.0159,0.0157,0.0104,0.0121,0.0096,0.0045,0.0032,0.0003,-0.0099,-0.0159,-0.02,-0.0198,-0.0239,-0.0267,-0.0227,-0.0253,-0.0251,-0.025,-0.0265,-0.0265,-0.0268,-0.0268,-0.0269,-0.0269,0,0.0197,0.0212,0.0224,0.0227,0.0223,0.023,0.0198,0.0184,0.015,0.0121,0.0076,-0.0006,-0.0064,-0.0095,-0.0142,-0.0165,-0.0186,-0.0238,-0.0259,-0.0238,-0.0257,-0.0259,-0.0261,-0.0262,-0.0264,-0.0265,0,0,0.0201,0.0249,0.0248,0.0269,0.0261,0.0263,0.0266,0.0251,0.0253,0.0199,0.0194,0.0108,0.0065,0.0023,-0.0048,-0.009,-0.0103,-0.0148,-0.0153,-0.014,-0.0187,-0.0164,-0.0165,-0.0163,-0.0163,-0.0163,-0.0195,0,0.0235,0.0297,0.0305,0.0349,0.0374,0.0347,0.0357,0.0339,0.031,0.0294,0.0213,0.0177,0.0108,0.008,0.0031,-0.0078,-0.0107,-0.0087,-0.0228,-0.023,-0.0196,-0.0166,-0.0139,-0.0163,-0.0198,-0.0198,-0.0198,0,0.0267,0.0308,0.0369,0.042,0.0427,0.0444,0.0451,0.0455,0.0423,0.0403,0.0361,0.0295,0.0232,0.0162,0.0028,0.0042,-0.005,-0.0131,-0.0136,-0.0148,-0.0212,-0.0197,-0.0166,-0.0203,-0.0202,-0.0202,-0.0202,0,0.028,0.0346,0.0401,0.0416,0.0462,0.0479,0.0494,0.0484,0.0496,0.0471,0.0473,0.0387,0.0341,0.0217,0.0065,0.0041,-0.008,-0.0144,-0.0202,-0.0201,-0.022,-0.022,-0.0228,-0.0228,-0.0228,-0.0228,-0.0228,0,0.0309,0.0348,0.0414,0.044,0.0499,0.0517,0.0563,0.0565,0.0576,0.0598,0.053,0.0521,0.0348,0.0254,0.011,-0.003,-0.0046,-0.0167,-0.0206,-0.0182,-0.0178,-0.0258,-0.0261,-0.0229,-0.0229,-0.0228,-0.0228,0,0.0311,0.0355,0.0419,0.0485,0.0508,0.0546,0.0612,0.0648,0.0654,0.068,0.0677,0.0617,0.0507,0.0346,0.015,0.0036,-0.0112,-0.0163,-0.0096,-0.0126,-0.0208,-0.0206,-0.0222,-0.0221,-0.0221,-0.022,-0.022,0,0.0323,0.036,0.0444,0.0487,0.052,0.0583,0.0631,0.0673,0.0716,0.0734,0.0751,0.0675,0.0623,0.039,0.0196,-0.0003,-0.0084,-0.0126,-0.0171,-0.0169,-0.0207,-0.0205,-0.0204,-0.0155,-0.0155,-0.0154,-0.0153,0,0.0344,0.0368,0.0422,0.051,0.0573,0.0653,0.0726,0.0774,0.082,0.0846,0.0866,0.0832,0.0653,0.0452,0.0207,0.0081,-0.0087,-0.0117,-0.0149,-0.0153,-0.0107,-0.0144,-0.0145,-0.0147,-0.0148,-0.0148,-0.0148,-0.0149,0.0349,0.0389,0.046,0.0539,0.0615,0.0712,0.0775,0.0857,0.0931,0.0977,0.0951,0.0862,0.0615,0.0293,0.0141,0.0003,-0.0014,-0.0136,-0.0138,-0.0142,-0.012,-0.0075,-0.0103,-0.0103,-0.0104,-0.0104,-0.0104,0,0.0366,0.0416,0.0492,0.0592,0.0672,0.071,0.0831,0.0897,0.0983,0.0993,0.1011,0.0713,0.0515,0.0271,0.0084,-0.0046,-0.004,-0.0102,-0.0108,-0.0112,-0.0117,-0.0095,-0.0071,-0.0072,-0.0072,-0.0072,0,0,0.0383,0.0449,0.0492,0.0619,0.0684,0.0783,0.0849,0.0944,0.0972,0.098,0.088,0.0777,0.0454,0.0259,0.0111,0.0028,0.0005,0.0036,0.0026,0.0038,0.0035,-0.0118,-0.0086,0,0,0,0,0]}],[{"header":{"parameterUnit":"m.s-1","parameterCategory":2,"la1":30.2991,"la2":30.254,"lo1":-89.0895,"lo2":-89.0444,"dy":0.0017,"dx":0.0017,"nx":28,"ny":28,"refTime":"2025-07-04T03:00:00:Z","depth":"4","parameterNumber":2,"parameterNumberName":"U-component_of_CURRENTS"},"data":[0,0,0,0,0,0,0,0,0,0,0,0,0,0,0,0,0,0,0,0,0,0,0,0,0,0,0,0,0,0,0,0,0,0,0,0,0,0,0,0,0,0,0,0,0,0,0,0,0,0,0,0,0,0,0,0,0,0,-0.0226,-0.0227,0,-0.0248,-0.0248,-0.0248,-0.0256,-0.0257,-0.0257,-0.0257,-0.0345,-0.0347,-0.0349,0,0,0,0,0,0,0,0,0,0,0,0,0,-0.0206,-0.0206,-0.0226,-0.0227,-0.0227,-0.0248,-0.0248,-0.0248,-0.0256,-0.0257,-0.0257,-0.0257,-0.0344,-0.0347,-0.035,0,0,0,0,0,0,0,0,0,0,0,0,0,-0.0218,-0.0206,-0.0226,-0.0236,-0.0237,-0.0248,-0.0248,-0.0248,-0.0256,-0.0257,-0.0257,-0.0257,-0.0344,-0.0347,-0.035,-0.0366,0,0,-0.036,-0.0362,0,0,0,0,0,0,0,0,-0.0217,-0.0218,-0.0234,-0.0235,-0.0237,-0.0252,-0.0273,-0.0292,-0.0256,-0.0246,-0.0257,-0.0257,-0.0322,-0.0327,-0.0326,-0.037,-0.0374,-0.036,-0.0362,-0.0364,-0.0365,0,0,0,0,0,0,0,-0.0216,-0.0217,-0.0233,-0.0234,-0.0236,-0.0244,-0.0245,-0.0277,-0.0282,-0.0247,-0.0249,-0.0255,-0.0322,-0.0322,-0.0328,-0.0375,-0.036,-0.0363,-0.0365,-0.0367,-0.0472,-0.0472,0,0,0,0,0,0,-0.0217,-0.0216,-0.0232,-0.0233,-0.023,-0.0244,-0.0246,-0.0245,-0.028,-0.0286,-0.0255,-0.0255,-0.0317,-0.0324,-0.0331,-0.0373,-0.0364,-0.0367,-0.0369,-0.0471,-0.0472,-0.0473,0,0,0,0,0,0,-0.0217,-0.0218,-0.0231,-0.0228,-0.023,-0.0244,-0.0243,-0.0245,-0.0257,-0.0285,-0.0292,-0.0266,-0.0317,-0.0327,-0.037,-0.0376,-0.0368,-0.0371,-0.047,-0.0471,-0.0472,-0.0443,0,0,0,0,0,0,-0.0216,-0.0217,-0.022,-0.0228,-0.0231,-0.0255,-0.0243,-0.0246,-0.0261,-0.0262,-0.0297,-0.0305,-0.0318,-0.0365,-0.0373,-0.038,-0.0374,-0.0469,-0.047,-0.0472,-0.0443,-0.0443,-0.0444,0,0,0,0,0,-0.0215,-0.0225,-0.022,-0.0222,-0.0232,-0.0256,-0.0259,-0.0267,-0.0261,-0.0276,-0.0294,-0.0304,-0.038,-0.0368,-0.0378,-0.0386,-0.0468,-0.047,-0.0472,-0.0443,-0.0443,-0.0444,0,0,0,0,0,0,-0.0223,-0.0228,-0.0221,-0.0233,-0.0249,-0.0259,-0.0273,-0.0274,-0.0296,-0.0296,-0.0317,-0.0326,-0.0365,-0.0386,-0.0372,-0.0423,-0.0426,-0.0429,-0.0401,-0.0401,-0.0401,-0.0376,-0.0377,0,0,0,0,0,-0.0223,-0.023,-0.0238,-0.025,-0.0256,-0.0263,-0.0273,-0.0277,-0.0296,-0.0305,-0.0322,-0.0348,-0.0378,-0.0398,-0.0426,-0.0457,-0.0455,-0.047,-0.047,-0.047,-0.0457,-0.0472,-0.0471,-0.0479,-0.0479,-0.0479,0,0,-0.0233,-0.0235,-0.024,-0.0252,-0.026,-0.0278,-0.027,-0.0289,-0.0304,-0.0314,-0.0338,-0.0353,-0.0388,-0.0417,-0.0437,-0.0436,-0.0465,-0.0472,-0.0471,-0.0458,-0.0474,-0.0473,-0.0472,-0.048,-0.048,-0.0479,0,0,-0.0254,-0.0253,-0.0264,-0.0277,-0.0291,-0.0297,-0.0306,-0.0314,-0.0319,-0.0338,-0.0351,-0.0371,-0.0407,-0.0432,-0.045,-0.0475,-0.0466,-0.0482,-0.0459,-0.0474,-0.0473,-0.0472,-0.0451,-0.0449,-0.048,-0.0479,-0.0479,0,-0.0261,-0.0271,-0.0275,-0.029,-0.0304,-0.0308,-0.0327,-0.0337,-0.0357,-0.0361,-0.0347,-0.0385,-0.0414,-0.0456,-0.0448,-0.0474,-0.046,-0.0452,-0.0472,-0.0471,-0.047,-0.0449,-0.0447,-0.0478,-0.0478,-0.0479,-0.0479,0,-0.0286,-0.0299,-0.0311,-0.0326,-0.0345,-0.0364,-0.0377,-0.0387,-0.0378,-0.0378,-0.0396,-0.0412,-0.0423,-0.0443,-0.0443,-0.046,-0.0442,-0.0469,-0.0463,-0.0467,-0.0445,-0.0443,-0.0477,-0.0477,-0.0477,-0.0478,0,0,-0.0279,-0.0318,-0.0318,-0.0334,-0.0361,-0.0378,-0.0405,-0.0423,-0.0429,-0.0425,-0.0425,-0.045,-0.0419,-0.0437,-0.0445,-0.0454,-0.0427,-0.0438,-0.044,-0.0402,-0.0418,-0.0394,-0.0389,-0.0445,-0.0445,-0.0445,-0.0397,0,-0.029,-0.0322,-0.0339,-0.0378,-0.0398,-0.0414,-0.0436,-0.0454,-0.045,-0.0451,-0.0453,-0.0446,-0.0432,-0.0408,-0.0416,-0.0435,-0.0422,-0.0435,-0.0433,-0.0432,-0.0399,-0.0387,-0.0445,-0.0395,-0.0395,-0.0394,-0.0394,0,-0.0293,-0.0318,-0.0344,-0.0396,-0.0404,-0.041,-0.0434,-0.0451,-0.0462,-0.0451,-0.0434,-0.0425,-0.042,-0.0403,-0.0406,-0.0405,-0.0387,-0.04,-0.04,-0.0384,-0.0405,-0.0398,-0.039,-0.039,-0.0391,-0.0391,-0.0391,0,-0.0271,-0.0322,-0.0338,-0.0354,-0.0404,-0.0399,-0.0407,-0.0426,-0.0444,-0.0415,-0.0413,-0.0406,-0.0385,-0.038,-0.0373,-0.0373,-0.0382,-0.0402,-0.0364,-0.0362,-0.0409,-0.0411,-0.0389,-0.0389,-0.0389,-0.0389,-0.0389,0,-0.0267,-0.0289,-0.0312,-0.0321,-0.0334,-0.036,-0.0363,-0.0368,-0.0381,-0.0399,-0.0375,-0.0386,-0.0373,-0.0381,-0.0368,-0.035,-0.0371,-0.0343,-0.035,-0.0397,-0.0399,-0.0406,-0.0409,-0.0387,-0.0388,-0.0388,-0.0388,0,-0.0242,-0.0262,-0.0289,-0.0317,-0.0317,-0.0307,-0.0333,-0.0346,-0.0341,-0.0358,-0.0339,-0.0361,-0.0343,-0.0348,-0.0347,-0.0342,-0.0338,-0.0324,-0.0345,-0.0357,-0.03,-0.0302,-0.0265,-0.0264,-0.0263,-0.0262,-0.0261,0,-0.0234,-0.0237,-0.0264,-0.0264,-0.026,-0.0258,-0.0268,-0.0295,-0.0318,-0.0355,-0.0369,-0.0352,-0.0354,-0.0312,-0.0336,-0.0297,-0.03,-0.0282,-0.0302,-0.0277,-0.0288,-0.0292,-0.0295,-0.0259,-0.0259,-0.0259,-0.0259,0,-0.0224,-0.0218,-0.024,-0.023,-0.0224,-0.0253,-0.0258,-0.026,-0.0298,-0.0344,-0.0331,-0.0309,-0.0303,-0.0284,-0.0246,-0.0241,-0.0292,-0.0271,-0.0273,-0.0292,-0.0271,-0.0283,-0.0288,-0.0255,-0.0256,-0.0256,-0.0256,0,-0.0208,-0.0211,-0.0216,-0.0209,-0.0209,-0.0199,-0.0215,-0.0226,-0.0246,-0.0279,-0.0288,-0.0274,-0.0294,-0.0258,-0.0253,-0.0214,-0.0209,-0.0197,-0.0203,-0.0207,-0.0218,-0.0185,-0.0133,0,0,0,0,0,-0.0192,-0.0195,-0.0197,-0.0182,-0.0177,-0.0179,-0.0207,-0.0232,-0.0272,-0.0238,-0.0246,-0.0226,-0.0189,-0.0212,-0.0156,-0.0251,-0.0221,-0.019,-0.0213,-0.0235,-0.024,-0.0262,0,0,0,0,0,0,-0.0187,-0.019,-0.0198,-0.0156,-0.0129,-0.0132,-0.0135,-0.0166,-0.015,-0.0182,-0.0155,-0.021,-0.0175,-0.0191,-0.0147,-0.0153,-0.016,-0.0206,-0.0205,-0.0233,-0.0237,-0.024,-0.0265,0,0,0,0,0]},{"header":{"parameterUnit":"m.s-1","parameterCategory":2,"la1":30.2991,"la2":30.254,"lo1":-89.0895,"lo2":-89.0444,"dy":0.0017,"dx":0.0017,"nx":28,"ny":28,"refTime":"2025-07-04T03:00:00:Z","depth":"4","parameterNumber":3,"parameterNumberName":"V-component_of_CURRENTS"},"data":[0,0,0,0,0,0,0,0,0,0,0,0,0,0,0,0,0,0,0,0,0,0,0,0,0,0,0,0,0,0,0,0,0,0,0,0,0,0,0,0,0,0,0,0,0,0,0,0,0,0,0,0,0,0,0,0,0,0,0.0378,0.0379,0,0.0402,0.0402,0.0402,0.0478,0.048,0.0482,0.0484,0.0537,0.0536,0.0536,0,0,0,0,0,0,0,0,0,0,0,0,0,0.0345,0.0345,0.0378,0.0379,0.038,0.0402,0.0402,0.0402,0.0477,0.048,0.0482,0.0485,0.0537,0.0536,0.0536,0,0,0,0,0,0,0,0,0,0,0,0,0,0.0359,0.0345,0.0378,0.0423,0.0428,0.0402,0.0402,0.0402,0.0477,0.048,0.0483,0.0486,0.0537,0.0536,0.0536,0.0468,0,0,0.0533,0.0533,0,0,0,0,0,0,0,0,0.0358,0.036,0.0416,0.042,0.0425,0.0444,0.041,0.0427,0.0476,0.0454,0.0484,0.0487,0.0509,0.0511,0.0501,0.047,0.0473,0.0533,0.0533,0.0532,0.0532,0,0,0,0,0,0,0,0.0357,0.0359,0.0383,0.0417,0.0422,0.0424,0.043,0.0413,0.046,0.0456,0.0462,0.0471,0.0512,0.0502,0.0503,0.0473,0.0533,0.0532,0.0532,0.0531,0.0462,0.0461,0,0,0,0,0,0,0.0362,0.0358,0.0383,0.0385,0.0404,0.0423,0.0429,0.0431,0.046,0.0469,0.0468,0.0474,0.0502,0.0504,0.0506,0.0474,0.0532,0.0531,0.0531,0.0464,0.0462,0.0461,0,0,0,0,0,0,0.0361,0.0364,0.0382,0.0376,0.0379,0.0421,0.0423,0.043,0.0462,0.047,0.0479,0.0498,0.0504,0.0507,0.0512,0.0475,0.0531,0.053,0.0465,0.0463,0.0461,0.038,0,0,0,0,0,0,0.036,0.0363,0.0376,0.0376,0.038,0.0386,0.042,0.0429,0.0462,0.0471,0.0497,0.0503,0.0507,0.0513,0.0511,0.0475,0.053,0.0467,0.0464,0.0462,0.0384,0.0375,0.0368,0,0,0,0,0,0.0358,0.0365,0.0376,0.0381,0.0393,0.0386,0.0387,0.0425,0.0461,0.0466,0.0484,0.0505,0.0496,0.0511,0.0509,0.0472,0.0468,0.0465,0.0462,0.0388,0.0377,0.0368,0,0,0,0,0,0,0.0358,0.0373,0.0386,0.0399,0.0401,0.0402,0.0419,0.0436,0.0452,0.0472,0.0487,0.0492,0.048,0.0489,0.0506,0.0446,0.0484,0.0481,0.0428,0.0418,0.041,0.0407,0.0529,0,0,0,0,0,0.0361,0.0377,0.0378,0.0392,0.0395,0.0409,0.0418,0.0434,0.0444,0.0457,0.0461,0.0467,0.0453,0.0454,0.0444,0.041,0.0432,0.0386,0.0378,0.0371,0.0367,0.0371,0.0363,0.045,0.0451,0.0451,0,0,0.0375,0.0379,0.0396,0.0394,0.0404,0.0382,0.0423,0.0437,0.0416,0.0455,0.0437,0.0441,0.0441,0.0402,0.0396,0.0413,0.0356,0.0367,0.036,0.0361,0.0367,0.0359,0.0351,0.0448,0.0449,0.0449,0,0,0.0375,0.0403,0.0403,0.0393,0.0399,0.0394,0.0403,0.0399,0.0406,0.0376,0.0398,0.039,0.0362,0.035,0.0341,0.0284,0.0315,0.0277,0.0226,0.0229,0.0222,0.0217,0.0228,0.0224,0.0269,0.0269,0.0269,0,0.0389,0.0374,0.0402,0.0375,0.0365,0.0397,0.0368,0.0362,0.0355,0.0345,0.0368,0.0323,0.0332,0.0283,0.0258,0.0263,0.0276,0.0262,0.0219,0.0213,0.0209,0.0222,0.0219,0.0265,0.0265,0.0266,0.0266,0,0.0361,0.0352,0.035,0.0323,0.0314,0.0302,0.0287,0.0277,0.0285,0.0269,0.0237,0.0235,0.0213,0.0202,0.0208,0.0165,0.0188,0.0211,0.0244,0.0195,0.0212,0.021,0.0258,0.026,0.0261,0.0262,0,0,0.0382,0.0339,0.0339,0.0309,0.0284,0.0267,0.0232,0.0198,0.0182,0.0162,0.0128,0.0092,0.0107,0.01,0.0107,0.0101,0.0077,0.0133,0.0135,0.0145,0.0087,0.0047,0.0041,0.0091,0.009,0.0089,0.011,0,0.035,0.0287,0.0272,0.0214,0.0179,0.0177,0.0137,0.0113,0.0104,0.0077,0.0075,0.005,0.0063,0.0056,0.0046,0.0075,0.0068,0.0069,0.0133,0.0135,0.0106,0.0036,0.0087,0.0109,0.0109,0.0108,0.0108,0,0.0317,0.0275,0.0211,0.0146,0.0134,0.0104,0.006,0.0027,0.0002,-0.0005,-0.0026,-0.0018,-0.0041,-0.0008,-0.0001,-0.0001,0.0031,0.0056,0.0058,0.0048,0.009,0.0171,0.0105,0.0105,0.0106,0.0106,0.0106,0,0.0303,0.0231,0.018,0.0156,0.0089,0.0067,0.0041,0.0009,-0.0016,-0.0042,-0.0052,-0.0077,-0.0069,-0.0055,-0.001,-0.0007,0.0019,0.0038,0.003,0.0029,0.0101,0.0107,0.0045,0.0045,0.0045,0.0045,0.0045,0,0.0258,0.0219,0.0175,0.0142,0.0084,0.0052,0.0005,-0.0021,-0.0048,-0.008,-0.0083,-0.0107,-0.0078,-0.0061,-0.0028,-0.0013,0.0007,0.0002,0.0019,0.0066,0.0068,0.01,0.0106,0.0046,0.0045,0.0045,0.0045,0,0.0239,0.0212,0.015,0.0091,0.0075,0.0039,-0.001,-0.0048,-0.0058,-0.0093,-0.0102,-0.012,-0.012,-0.0083,-0.0045,-0.003,-0.0008,0.0004,0.005,0.0074,0.0004,0.0006,-0.0032,-0.0033,-0.0034,-0.0036,-0.0036,0,0.0213,0.0183,0.0128,0.0097,0.0071,0.0023,-0.0015,-0.0048,-0.0083,-0.011,-0.0133,-0.0138,-0.0147,-0.0121,-0.0093,-0.005,-0.0036,-0.0014,-0.0026,-0.003,-0.0009,-0.0006,-0.0002,-0.0039,-0.0039,-0.0039,-0.004,0,0.0157,0.0161,0.0113,0.0067,0.0026,-0.0038,-0.0085,-0.01,-0.0136,-0.0137,-0.0167,-0.0169,-0.0169,-0.0158,-0.0113,-0.0082,-0.0034,-0.0028,-0.0025,-0.0036,-0.0039,-0.0016,-0.0011,-0.0044,-0.0043,-0.0043,-0.0043,0,0.0129,0.0094,0.006,0.0017,-0.0027,-0.0084,-0.011,-0.0153,-0.018,-0.0185,-0.0198,-0.0192,-0.0183,-0.0175,-0.0144,-0.0119,-0.0123,-0.0102,-0.0095,-0.009,-0.0121,-0.0134,-0.0174,0,0,0,0,0,0.0091,0.0054,0.0005,-0.0054,-0.0084,-0.0106,-0.0157,-0.0178,-0.0182,-0.0205,-0.0197,-0.0203,-0.0191,-0.0196,-0.0182,-0.0182,-0.0122,-0.0166,-0.0094,-0.0069,-0.0064,-0.0096,0,0,0,0,0,0,0.0051,0.0014,-0.001,-0.008,-0.0112,-0.0172,-0.0194,-0.0208,-0.0223,-0.021,-0.0208,-0.0195,-0.0188,-0.0186,-0.0176,-0.0174,-0.0127,-0.0158,-0.0157,-0.0072,-0.0067,-0.0063,-0.0094,0,0,0,0,0]}]]